SCP
0 0 0 0 0 0 0 0 0 0 0 0 0 0 0 0 0 0 0 0 0 0 0 0 0 0 0 0 0 0 0 0 0 0 0 0 0 0 0 0 0 0 0
0 0 0 0 0 0 0 0 0 0 0 0 0 0 0 0 0 0 0 0 0 0 0 0 0 0 0 0 0 0 0 0 0 0 0 0 0 0 0 0 0 0 0
0 0 0 0 0 0 0 0 0 0 0 0 0 0 0 0 0 0 0 0 0 0 0 0 0 0 0 0 0 0 0 0 0 0 0 0 0 0 0 0 0 0 0
0 0 0 0 0 0 0 0 0 0 0 0 0 0 0 0 0 0 0 0 0 0 0 0 0 0 0 0 0 0 0 0 0 0 0 0 0 0 0 0 0 0 0
0 0 0 0 0 0 0 0 0 0 0 0 0 0 0 0 0 0 0 0 0 0 0 0 0 0 0 0 0 0 0 0 0 0 0 0 0 0 0 0 0 0 0
0 0 0 0 0 0 0 0 0 0 0 0 0 0 0 0 0 0 0 0 0 0 0 0 0 0 0 0 0 0 0 0 0 0 0 0 0 0 0 0 0 0 0
0 0 0 0 0 0 0 0 0 0 0 0 0 0 0 0 0 0 0 0 0 0 0 0 0 0 0 0 0 0 0 0 0 0 0 0 0 0 0 0 0 0 0
0 0 0 0 0 0 0 0 0 0 0 0 0 0 0 0 0 0 0 0 0 0 0 0 0 0 0 0 0 0 0 0 0 -0 0 0 0 0 0 0 0 0 0
0 0 0 0 0 0 0 0 0 0 0 0 0 0 0 0 0 0 0 0 0 0 0 0 0 0 0 0 0 0 0 0 0 0 -0 0 0 0 0 0 0 0 0
0 0 0 0 0 0 0 0 0 0 0 0 0 0 0 0 0 0 0 0 0 0 0 0 0 0 0 0 0 0 0 0 0 0 0 0 0 0 0 0 0 0 0
0 0 0 0 0 0 0 0 0 0 0 0 0 0 0 0 0 0 0 0 0 0 0 0 0 0 0 0 0 0 0 0 0 0 0 0 0 0 0 0 0 0 0
0 0 0 0 0 0 0 0 0 0 0 0 0 0 0 0 0 0 0 0 0 0 0 0 0 0 0 0 0 0 0 0 0 0 0 0 0 0 0 0 0 0 0
0 0 0 0 0 0 0 0 0 0 0 0 0 0 0 0 0 0 0 0 0 0 0 0 0 0 0 0 0 0 0 0 0 0 0 0 0 0 0 0 0 0 0
0 0 0 0 0 0 0 0 0 0 0 0 0 0 0 0 0 0 0 0 0 0 0 0 0 0 0 0 0 0 0 0 0 0 0 0 0 0 0 0 0 0 0
0 0 0 0 0 0 0 0 0 0 0 0 0 0 0 0 0 0 0 0 0 0 0 0 0 0 0 0 0 0 0 0 0 0 0 0 0 0 0 0 0 0 0
0 0 0 0 0 0 0 0 0 0 0 0 0 0 0 0 0 0 0 0 0 0 0 0 0 0 0 0 0 0 0 0 0 0 0 0 0 0 0 0 0 0 0
0 0 0 0 0 0 0 0 0 0 0 0 0 0 0 0 0 0 0 0 0 0 0 0 0 0 0 0 0 0 0 0 0 0 0 0 0 0 0 0 0 0 0
0 0 0 0 0 0 0 0 0 0 0 0 0 0 0 0 0 0 0 0 0 0 0 0 0 0 0 0 0 0 0 0 0 0 0 0 0 0 0 0 0 0 0
0 0 0 0 0 0 0 0 0 0 0 0 0 0 0 0 0 0 0 0 0 0 0 0 0 0 0 0 0 0 0 0 0 0 0 0 0 0 0 0 0 0 0
0 0 0 0 0 0 0 0 0 0 0 0 0 0 0 0 0 0 0 0 0 0 0 0 0 0 0 0 0 0 0 0 0 0 -0 0 0 0 0 0 0 0 0
0 0 0 0 0 0 0 0 0 0 0 0 0 0 0 0 0 0 0 0 0 0 0 0 0 0 0 0 0 0 0 0 0 -0 -0 0 0 0 0 0 0 0 0
0 0 0 0 0 0 0 0 0 0 0 0 0 0 0 0 0 0 0 0 0 0 0 0 0 0 0 0 0 0 0 0 0 0 0 0 0 0 0 0 0 0 0
0 0 0 0 0 0 0 0 0 0 0 0 0 0 0 0 0 0 0 0 0 0 0 0 0 0 0 0 0 0 0 0 0 0 0 0 0 0 0 0 0 0 0
0 0 0 0 0 0 0 0 0 0 0 0 0 0 0 0 0 0 0 0 0 0 0 0 0 0 0 0 0 0 -0 0 0 0 0 0 0 0 0 0 0 0 0
0 0 0 0 0 0 0 0 0 0 0 0 0 0 0 0 0 0 0 0 0 0 0 0 0 0 0 0 0 0 0 0 0 0 0 0 0 0 0 0 0 0 0
0 0 0 0 0 0 0 0 0 0 0 0 0 0 0 0 0 0 0 0 0 0 0 0 0 0 0 0 0 0 0 0 0 0 0 0 0 0 0 0 0 0 0
Wind_Speed
6 7 7 6 4 1 2 5 4 3 5 6 7 8 9 9 9 8 8 7 7 7 7 7 7 7 5 5 6 6 6 6 7 5 3 4 5 6 4 7 9 9 9
6 6 5 4 2 2 4 3 2 1 3 5 6 7 8 8 8 8 8 7 7 7 7 7 7 5 7 7 6 8 7 7 7 8 6 6 8 8 6 7 7 7 8
6 4 3 2 1 3 2 1 2 3 2 3 5 7 7 7 8 8 8 8 7 7 6 6 5 5 6 6 7 8 7 7 7 7 7 6 6 5 6 7 8 7 8
5 3 3 2 2 1 2 2 3 4 3 2 1 4 5 6 7 7 7 9 8 7 6 4 4 4 4 5 6 7 6 5 6 6 6 5 5 4 4 6 7 6 7
5 4 3 2 2 2 3 3 4 4 4 3 2 1 0 2 3 4 6 9 9 8 7 6 4 1 3 3 4 4 3 2 2 3 4 4 5 4 4 5 6 5 6
9 8 7 7 6 6 5 5 5 6 6 5 4 4 4 4 5 4 7 7 7 6 6 6 5 7 7 6 4 5 6 4 2 2 2 3 3 4 3 3 4 3 4
12 11 11 10 9 9 8 8 8 9 9 8 7 6 7 8 8 4 6 7 7 6 6 7 5 4 5 6 7 8 7 5 4 4 4 2 1 2 3 4 4 4 4
12 11 10 9 9 9 10 10 10 9 9 8 8 8 9 12 13 9 4 5 4 5 6 8 8 8 7 5 5 5 4 3 3 5 3 2 3 3 2 2 2 3 3
10 9 9 9 9 9 10 10 9 8 8 8 8 9 9 11 15 15 11 1 1 3 4 7 8 8 3 1 7 6 5 3 3 5 6 5 5 5 4 3 3 3 3
8 8 8 9 9 8 8 8 7 6 6 6 8 9 9 9 13 14 13 5 4 3 2 4 4 5 2 3 8 7 6 4 3 3 4 4 4 3 4 4 3 3 2
7 8 8 8 8 7 7 7 7 7 6 6 7 7 7 8 9 11 10 6 6 6 5 4 1 1 5 6 8 8 4 6 4 2 1 1 1 1 2 1 1 0 0
5 6 6 6 5 5 6 7 7 6 5 5 5 5 4 4 5 6 6 5 6 6 5 5 4 4 6 7 6 4 4 3 2 1 1 1 2 2 1 1 1 1 1
4 5 4 4 4 5 5 6 5 5 4 4 4 4 3 3 3 5 6 6 7 6 5 5 6 6 7 7 6 5 4 3 3 3 2 2 2 1 1 1 1 1 2
4 4 3 4 4 4 4 4 4 4 5 5 6 5 6 5 6 7 7 7 7 5 3 4 6 6 5 3 2 4 4 3 4 3 3 3 2 2 1 0 1 1 1
3 3 3 3 3 3 4 3 3 4 6 6 5 5 6 7 10 11 7 8 8 6 4 1 0 1 2 2 2 3 4 5 4 4 4 3 3 2 1 1 2 2 2
2 1 2 2 3 3 2 4 2 1 3 5 6 7 5 7 9 9 9 11 13 11 5 4 3 2 2 2 3 3 3 3 3 3 3 2 1 1 1 1 1 2 3
2 0 1 2 3 3 3 2 3 4 4 0 5 7 8 9 10 10 10 10 14 13 9 8 7 6 5 4 4 4 4 4 4 4 4 3 3 3 3 3 3 4 4
2 2 1 2 2 3 3 3 3 3 3 3 5 8 7 8 10 11 10 8 10 10 9 8 8 7 7 7 6 6 5 5 4 4 4 3 3 3 4 4 5 6 6
3 3 2 2 2 3 3 3 4 5 4 3 3 4 4 3 5 10 9 8 8 8 8 8 8 7 7 6 6 5 5 4 4 4 4 5 4 4 4 4 4 4 5
3 3 2 2 2 2 2 2 4 4 3 3 4 5 4 5 6 7 7 7 6 7 7 7 6 7 6 6 6 6 6 6 6 6 5 4 4 4 4 4 4 4 4
4 5 4 3 2 1 2 2 3 3 3 4 5 5 6 5 5 5 5 5 6 6 6 6 6 6 6 5 5 5 5 4 4 4 4 4 4 3 3 3 4 4 5
3 4 4 2 2 1 1 2 2 3 3 3 3 3 1 3 4 4 4 5 6 5 5 5 5 5 5 5 6 5 4 4 4 3 3 3 3 3 3 3 4 4 5
3 4 4 3 3 3 2 1 1 2 2 1 1 1 2 3 3 4 4 4 4 5 5 5 5 5 5 5 5 5 5 5 4 4 3 2 3 3 4 4 5 5 6
3 4 4 4 3 3 3 2 2 2 2 1 1 1 2 3 3 3 3 3 4 4 4 5 5 6 7 6 5 6 7 6 4 3 3 3 3 4 4 4 5 7 6
4 4 4 4 4 4 3 3 3 3 2 2 1 1 1 2 3 3 3 3 4 4 5 4 4 4 7 9 9 8 8 9 8 6 3 3 5 5 6 6 6 6 6
5 5 5 4 4 4 4 4 3 3 2 2 2 2 1 1 2 2 3 3 3 3 4 4 4 5 5 6 9 9 7 8 8 9 4 5 6 6 6 6 7 6 6
Wind_Direction
81 81 83 84 82 50 285 267 256 220 198 200 209 205 191 190 192 193 209 203 218 220 222 233 241 247 246 247 252 250 240 233 243 248 248 240 225 233 208 231 237 223 210
77 78 83 83 85 261 256 246 230 209 214 214 211 217 204 198 197 194 201 203 212 219 226 237 246 243 252 253 247 246 240 231 234 240 230 235 249 259 262 254 240 236 242
61 78 91 117 184 233 220 157 129 123 142 192 213 226 221 215 211 208 203 209 215 218 227 252 273 264 256 254 250 249 242 233 227 237 242 232 236 242 250 256 249 241 243
44 69 113 146 180 159 93 99 93 93 93 91 193 234 234 233 230 226 218 220 219 213 214 232 254 249 256 266 265 262 255 245 236 239 243 238 225 204 220 240 240 230 233
53 69 82 107 117 106 94 73 57 56 62 57 56 90 46 266 260 257 243 233 226 215 214 219 222 284 343 312 308 304 286 254 232 243 246 235 218 188 205 226 247 258 254
64 73 81 90 91 86 75 61 50 42 36 34 39 68 61 36 359 302 270 250 239 235 234 234 206 206 208 217 260 305 319 308 280 227 218 224 210 205 210 217 240 255 264
58 58 59 61 60 58 60 57 50 46 43 41 43 61 67 43 14 341 259 255 234 230 246 251 238 228 227 229 203 222 236 228 265 299 278 269 238 201 210 214 225 242 257
51 51 51 54 56 56 54 51 47 48 51 53 54 63 64 47 35 23 322 248 245 239 240 248 246 237 225 253 251 248 264 240 234 256 283 324 354 0 333 320 318 288 272
48 47 48 52 52 49 47 45 42 45 52 57 56 54 57 45 30 18 350 25 259 254 256 253 256 254 147 227 263 260 261 257 208 253 303 312 322 303 296 291 275 263 256
47 48 47 47 50 50 48 45 47 49 50 59 60 49 43 38 29 20 2 357 354 340 284 248 235 271 353 248 257 259 267 283 274 220 231 239 266 266 243 251 274 278 267
40 40 40 40 42 37 35 33 28 31 34 40 59 53 39 25 32 30 17 4 350 324 304 279 218 83 314 296 278 279 308 316 302 307 24 45 78 101 108 122 131 182 134
52 47 44 39 32 27 29 31 29 25 34 39 53 62 47 31 18 18 7 357 331 318 308 308 326 336 305 296 277 294 333 284 258 147 127 114 124 132 141 143 138 146 112
47 52 42 44 43 29 27 37 40 38 40 45 49 46 38 18 3 326 311 306 298 298 294 278 279 281 279 262 238 246 233 213 180 175 163 132 113 118 130 124 116 107 108
28 32 33 27 43 58 49 46 48 48 45 41 33 20 4 359 4 351 340 333 321 305 295 252 242 243 245 263 223 189 190 181 182 168 145 138 145 151 139 77 53 24 127
2 12 13 22 23 52 74 56 54 61 32 14 12 1 0 357 359 350 348 353 348 343 326 312 96 160 165 153 149 148 154 164 166 147 145 151 158 155 109 41 0 340 334
307 350 6 25 32 32 76 127 122 60 21 5 359 349 21 19 360 13 13 12 11 3 14 47 51 58 81 120 130 129 129 129 128 127 120 113 102 84 72 55 356 340 346
271 161 69 32 39 37 34 53 116 156 188 249 33 33 30 19 21 21 16 28 28 24 39 39 37 37 43 64 79 83 77 72 73 74 74 68 56 45 38 23 6 355 352
212 135 129 80 50 47 46 48 54 67 98 103 85 57 28 21 28 24 19 37 41 37 38 37 37 35 39 48 58 66 69 67 69 82 85 77 60 49 40 27 19 8 357
189 160 143 100 83 70 61 61 74 77 72 56 61 75 40 19 49 37 33 45 47 41 38 36 34 35 39 46 52 58 65 67 60 61 57 47 40 47 46 32 21 14 353
158 108 132 144 140 112 91 74 81 86 87 73 52 36 36 42 47 43 41 43 47 46 41 38 34 34 36 41 44 48 52 51 45 41 34 33 33 38 40 32 16 4 359
155 147 172 193 158 110 86 72 86 103 101 85 69 45 357 41 56 54 52 47 43 38 35 36 34 27 27 28 34 44 50 49 45 40 28 18 20 29 30 27 18 11 358
160 158 177 173 160 156 103 96 98 118 125 106 101 110 327 51 67 68 61 48 41 35 28 35 45 35 26 23 16 17 23 28 26 23 27 19 14 23 29 24 16 3 353
180 167 170 169 175 157 210 165 161 174 162 132 92 73 81 71 75 73 66 54 41 33 31 41 50 45 41 38 39 33 27 18 7 3 4 21 33 32 24 17 12 7 15
198 188 181 177 185 194 206 202 207 203 197 198 230 308 56 72 76 79 77 60 48 50 53 56 56 56 52 42 42 45 36 19 13 32 48 59 46 34 32 31 33 34 29
218 203 197 195 197 211 222 214 213 211 202 213 217 209 137 86 78 77 72 64 56 64 66 66 63 55 57 58 56 52 36 26 20 4 47 53 53 52 54 52 52 45 33
222 211 210 207 208 221 231 230 220 209 199 192 190 187 185 130 100 95 81 68 74 81 79 75 69 67 64 63 55 43 38 37 22 354 18 68 63 55 59 66 62 53 50